Year,Month,Day,Hour,Minute,Value (Times are PST for temperature in C)
2013,09,22,00,00,2.90
2013,09,22,00,04,2.80
2013,09,22,00,05,2.80
2013,09,22,00,06,2.80
2013,09,22,00,07,2.80
2013,09,22,00,08,2.80
2013,09,22,00,09,2.80
2013,09,22,00,10,2.80
2013,09,22,00,11,2.80
2013,09,22,00,12,2.80
2013,09,22,00,13,2.80
2013,09,22,00,14,2.80
2013,09,22,00,15,2.80
2013,09,22,00,19,2.80
2013,09,22,00,20,2.80
2013,09,22,00,21,2.80
2013,09,22,00,22,2.80
2013,09,22,00,23,2.80
2013,09,22,00,24,2.80
2013,09,22,00,25,2.80
2013,09,22,00,26,2.80
2013,09,22,00,27,2.80
2013,09,22,00,28,2.80
2013,09,22,00,29,2.80
2013,09,22,00,30,2.80
2013,09,22,00,34,2.80
2013,09,22,00,35,2.80
2013,09,22,00,36,2.80
2013,09,22,00,37,2.80
2013,09,22,00,38,2.80
2013,09,22,00,39,2.80
2013,09,22,00,40,2.80
2013,09,22,00,41,2.80
2013,09,22,00,42,2.80
2013,09,22,00,43,2.80
2013,09,22,00,44,2.80
2013,09,22,00,45,2.80
2013,09,22,00,49,2.80
2013,09,22,00,50,2.80
2013,09,22,00,51,2.80
2013,09,22,00,52,2.80
2013,09,22,00,53,2.80
2013,09,22,00,54,2.80
2013,09,22,00,55,2.80
2013,09,22,00,56,2.80
2013,09,22,00,57,2.80
2013,09,22,00,58,2.80
2013,09,22,00,59,2.80
2013,09,22,01,00,2.80
2013,09,22,01,04,2.80
2013,09,22,01,05,2.80
2013,09,22,01,06,2.80
2013,09,22,01,07,2.80
2013,09,22,01,08,2.80
2013,09,22,01,09,2.80
2013,09,22,01,10,2.80
2013,09,22,01,11,2.80
2013,09,22,01,12,2.80
2013,09,22,01,13,2.80
2013,09,22,01,14,2.80
2013,09,22,01,15,2.80
2013,09,22,01,19,2.80
2013,09,22,01,20,2.80
2013,09,22,01,21,2.80
2013,09,22,01,22,2.80
2013,09,22,01,23,2.80
2013,09,22,01,24,2.80
2013,09,22,01,25,2.80
2013,09,22,01,26,2.80
2013,09,22,01,27,2.80
2013,09,22,01,28,2.80
2013,09,22,01,29,2.80
2013,09,22,01,30,2.80
2013,09,22,01,34,2.70
2013,09,22,01,35,2.70
2013,09,22,01,36,2.70
2013,09,22,01,37,2.70
2013,09,22,01,38,2.70
2013,09,22,01,39,2.70
2013,09,22,01,40,2.70
2013,09,22,01,41,2.70
2013,09,22,01,42,2.70
2013,09,22,01,43,2.70
2013,09,22,01,44,2.70
2013,09,22,01,45,2.70
2013,09,22,01,49,2.70
2013,09,22,01,50,2.70
2013,09,22,01,51,2.70
2013,09,22,01,52,2.70
2013,09,22,01,53,2.70
2013,09,22,01,54,2.70
2013,09,22,01,55,2.70
2013,09,22,01,56,2.70
2013,09,22,01,57,2.70
2013,09,22,01,58,2.70
2013,09,22,01,59,2.70
2013,09,22,02,00,2.70
2013,09,22,02,04,2.80
2013,09,22,02,05,2.80
2013,09,22,02,06,2.80
2013,09,22,02,07,2.80
2013,09,22,02,08,2.80
2013,09,22,02,09,2.80
2013,09,22,02,10,2.80
2013,09,22,02,11,2.80
2013,09,22,02,12,2.80
2013,09,22,02,13,2.80
2013,09,22,02,14,2.80
2013,09,22,02,15,2.80
2013,09,22,02,19,2.80
2013,09,22,02,20,2.80
2013,09,22,02,21,2.80
2013,09,22,02,22,2.80
2013,09,22,02,23,2.80
2013,09,22,02,24,2.80
2013,09,22,02,25,2.80
2013,09,22,02,26,2.80
2013,09,22,02,27,2.80
2013,09,22,02,28,2.80
2013,09,22,02,29,2.80
2013,09,22,02,30,2.80
2013,09,22,02,34,2.70
2013,09,22,02,35,2.70
2013,09,22,02,36,2.70
2013,09,22,02,37,2.70
2013,09,22,02,38,2.70
2013,09,22,02,39,2.70
2013,09,22,02,40,2.70
2013,09,22,02,41,2.70
2013,09,22,02,42,2.70
2013,09,22,02,43,2.70
2013,09,22,02,44,2.70
2013,09,22,02,45,2.70
2013,09,22,02,49,2.80
2013,09,22,02,50,2.80
2013,09,22,02,51,2.80
2013,09,22,02,52,2.80
2013,09,22,02,53,2.80
2013,09,22,02,54,2.80
2013,09,22,02,55,2.80
2013,09,22,02,56,2.80
2013,09,22,02,57,2.80
2013,09,22,02,58,2.80
2013,09,22,02,59,2.80
2013,09,22,03,00,2.80
2013,09,22,03,04,2.80
2013,09,22,03,05,2.80
2013,09,22,03,06,2.80
2013,09,22,03,07,2.80
2013,09,22,03,08,2.80
2013,09,22,03,09,2.80
2013,09,22,03,10,2.80
2013,09,22,03,11,2.80
2013,09,22,03,12,2.80
2013,09,22,03,13,2.80
2013,09,22,03,14,2.80
2013,09,22,03,15,2.80
2013,09,22,03,19,2.90
2013,09,22,03,20,2.90
2013,09,22,03,21,2.90
2013,09,22,03,22,2.90
2013,09,22,03,23,2.90
2013,09,22,03,24,2.90
2013,09,22,03,25,2.90
2013,09,22,03,26,2.90
2013,09,22,03,27,2.90
2013,09,22,03,28,2.90
2013,09,22,03,29,2.90
2013,09,22,03,30,2.90
2013,09,22,03,34,2.80
2013,09,22,03,35,2.80
2013,09,22,03,36,2.80
2013,09,22,03,37,2.80
2013,09,22,03,38,2.80
2013,09,22,03,39,2.80
2013,09,22,03,40,2.80
2013,09,22,03,41,2.80
2013,09,22,03,42,2.80
2013,09,22,03,43,2.80
2013,09,22,03,44,2.80
2013,09,22,03,45,2.80
2013,09,22,03,49,2.70
2013,09,22,03,50,2.70
2013,09,22,03,51,2.70
2013,09,22,03,52,2.70
2013,09,22,03,53,2.70
2013,09,22,03,54,2.70
2013,09,22,03,55,2.70
2013,09,22,03,56,2.70
2013,09,22,03,57,2.70
2013,09,22,03,58,2.70
2013,09,22,03,59,2.70
2013,09,22,04,00,2.70
2013,09,22,04,04,2.60
2013,09,22,04,05,2.60
2013,09,22,04,06,2.60
2013,09,22,04,07,2.60
2013,09,22,04,08,2.60
2013,09,22,04,09,2.60
2013,09,22,04,10,2.60
2013,09,22,04,11,2.60
2013,09,22,04,12,2.60
2013,09,22,04,13,2.60
2013,09,22,04,14,2.60
2013,09,22,04,15,2.60
2013,09,22,04,19,2.60
2013,09,22,04,20,2.60
2013,09,22,04,21,2.60
2013,09,22,04,22,2.60
2013,09,22,04,23,2.60
2013,09,22,04,24,2.60
2013,09,22,04,25,2.60
2013,09,22,04,26,2.60
2013,09,22,04,27,2.60
2013,09,22,04,28,2.60
2013,09,22,04,29,2.60
2013,09,22,04,30,2.60
2013,09,22,04,34,2.60
2013,09,22,04,35,2.60
2013,09,22,04,36,2.60
2013,09,22,04,37,2.60
2013,09,22,04,38,2.60
2013,09,22,04,39,2.60
2013,09,22,04,40,2.60
2013,09,22,04,41,2.60
2013,09,22,04,42,2.60
2013,09,22,04,43,2.60
2013,09,22,04,44,2.60
2013,09,22,04,45,2.60
2013,09,22,04,49,2.60
2013,09,22,04,50,2.60
2013,09,22,04,51,2.60
2013,09,22,04,52,2.60
2013,09,22,04,53,2.60
2013,09,22,04,54,2.60
2013,09,22,04,55,2.60
2013,09,22,04,56,2.60
2013,09,22,04,57,2.60
2013,09,22,04,58,2.60
2013,09,22,04,59,2.60
2013,09,22,05,00,2.60
2013,09,22,05,04,2.60
2013,09,22,05,05,2.60
2013,09,22,05,06,2.60
2013,09,22,05,07,2.60
2013,09,22,05,08,2.60
2013,09,22,05,09,2.60
2013,09,22,05,10,2.60
2013,09,22,05,11,2.60
2013,09,22,05,12,2.60
2013,09,22,05,13,2.60
2013,09,22,05,14,2.60
2013,09,22,05,15,2.60
2013,09,22,05,19,2.40
2013,09,22,05,20,2.40
2013,09,22,05,21,2.40
2013,09,22,05,22,2.40
2013,09,22,05,23,2.40
2013,09,22,05,24,2.40
2013,09,22,05,25,2.40
2013,09,22,05,26,2.40
2013,09,22,05,27,2.40
2013,09,22,05,28,2.40
2013,09,22,05,29,2.40
2013,09,22,05,30,2.40
2013,09,22,05,34,2.40
2013,09,22,05,35,2.40
2013,09,22,05,36,2.40
2013,09,22,05,37,2.40
2013,09,22,05,38,2.40
2013,09,22,05,39,2.40
2013,09,22,05,40,2.40
2013,09,22,05,41,2.40
2013,09,22,05,42,2.40
2013,09,22,05,43,2.40
2013,09,22,05,44,2.40
2013,09,22,05,45,2.40
2013,09,22,05,49,2.30
2013,09,22,05,50,2.30
2013,09,22,05,51,2.30
2013,09,22,05,52,2.30
2013,09,22,05,53,2.30
2013,09,22,05,54,2.30
2013,09,22,05,55,2.30
2013,09,22,05,56,2.30
2013,09,22,05,57,2.30
2013,09,22,05,58,2.30
2013,09,22,05,59,2.30
2013,09,22,06,00,2.30
2013,09,22,06,04,2.20
2013,09,22,06,05,2.20
2013,09,22,06,06,2.20
2013,09,22,06,07,2.20
2013,09,22,06,08,2.20
2013,09,22,06,09,2.20
2013,09,22,06,10,2.20
2013,09,22,06,11,2.20
2013,09,22,06,12,2.20
2013,09,22,06,13,2.20
2013,09,22,06,14,2.20
2013,09,22,06,15,2.20
2013,09,22,06,19,2.10
2013,09,22,06,20,2.10
2013,09,22,06,21,2.10
2013,09,22,06,22,2.10
2013,09,22,06,23,2.10
2013,09,22,06,24,2.10
2013,09,22,06,25,2.10
2013,09,22,06,26,2.10
2013,09,22,06,27,2.10
2013,09,22,06,28,2.10
2013,09,22,06,29,2.10
2013,09,22,06,30,2.10
2013,09,22,06,34,1.90
2013,09,22,06,35,1.90
2013,09,22,06,36,1.90
2013,09,22,06,37,1.90
2013,09,22,06,38,1.90
2013,09,22,06,39,1.90
2013,09,22,06,40,1.90
2013,09,22,06,41,1.90
2013,09,22,06,42,1.90
2013,09,22,06,43,1.90
2013,09,22,06,44,1.90
2013,09,22,06,45,1.90
2013,09,22,06,49,1.70
2013,09,22,06,50,1.70
2013,09,22,06,51,1.70
2013,09,22,06,52,1.70
2013,09,22,06,53,1.70
2013,09,22,06,54,1.70
2013,09,22,06,55,1.70
2013,09,22,06,56,1.70
2013,09,22,06,57,1.70
2013,09,22,06,58,1.70
2013,09,22,06,59,1.70
2013,09,22,07,00,1.70
2013,09,22,07,04,1.70
2013,09,22,07,05,1.70
2013,09,22,07,06,1.70
2013,09,22,07,07,1.70
2013,09,22,07,08,1.70
2013,09,22,07,09,1.70
2013,09,22,07,10,1.70
2013,09,22,07,11,1.70
2013,09,22,07,12,1.70
2013,09,22,07,13,1.70
2013,09,22,07,14,1.70
2013,09,22,07,15,1.70
2013,09,22,07,19,1.80
2013,09,22,07,20,1.80
2013,09,22,07,21,1.80
2013,09,22,07,22,1.80
2013,09,22,07,23,1.80
2013,09,22,07,24,1.80
2013,09,22,07,25,1.80
2013,09,22,07,26,1.80
2013,09,22,07,27,1.80
2013,09,22,07,28,1.80
2013,09,22,07,29,1.80
2013,09,22,07,30,1.80
2013,09,22,07,34,2.10
2013,09,22,07,35,2.10
2013,09,22,07,36,2.10
2013,09,22,07,37,2.10
2013,09,22,07,38,2.10
2013,09,22,07,39,2.10
2013,09,22,07,40,2.10
2013,09,22,07,41,2.10
2013,09,22,07,42,2.10
2013,09,22,07,43,2.10
2013,09,22,07,44,2.10
2013,09,22,07,45,2.10
2013,09,22,07,49,2.10
2013,09,22,07,50,2.10
2013,09,22,07,51,2.10
2013,09,22,07,52,2.10
2013,09,22,07,53,2.10
2013,09,22,07,54,2.10
2013,09,22,07,55,2.10
2013,09,22,07,56,2.10
2013,09,22,07,57,2.10
2013,09,22,07,58,2.10
2013,09,22,07,59,2.10
2013,09,22,08,00,2.10
2013,09,22,08,04,2.30
2013,09,22,08,05,2.30
2013,09,22,08,06,2.30
2013,09,22,08,07,2.30
2013,09,22,08,08,2.30
2013,09,22,08,09,2.30
2013,09,22,08,10,2.30
2013,09,22,08,11,2.30
2013,09,22,08,12,2.30
2013,09,22,08,13,2.30
2013,09,22,08,14,2.30
2013,09,22,08,15,2.30
2013,09,22,08,19,2.30
2013,09,22,08,20,2.30
2013,09,22,08,21,2.30
2013,09,22,08,22,2.30
2013,09,22,08,23,2.30
2013,09,22,08,24,2.30
2013,09,22,08,25,2.30
2013,09,22,08,26,2.30
2013,09,22,08,27,2.30
2013,09,22,08,28,2.30
2013,09,22,08,29,2.30
2013,09,22,08,30,2.30
2013,09,22,08,34,2.40
2013,09,22,08,35,2.40
2013,09,22,08,36,2.40
2013,09,22,08,37,2.40
2013,09,22,08,38,2.40
2013,09,22,08,39,2.40
2013,09,22,08,40,2.40
2013,09,22,08,41,2.40
2013,09,22,08,42,2.40
2013,09,22,08,43,2.40
2013,09,22,08,44,2.40
2013,09,22,08,45,2.40
2013,09,22,08,49,2.60
2013,09,22,08,50,2.60
2013,09,22,08,51,2.60
2013,09,22,08,52,2.60
2013,09,22,08,53,2.60
2013,09,22,08,54,2.60
2013,09,22,08,55,2.60
2013,09,22,08,56,2.60
2013,09,22,08,57,2.60
2013,09,22,08,58,2.60
2013,09,22,08,59,2.60
2013,09,22,09,00,2.60
2013,09,22,09,04,2.60
2013,09,22,09,05,2.60
2013,09,22,09,06,2.60
2013,09,22,09,07,2.60
2013,09,22,09,08,2.60
2013,09,22,09,09,2.60
2013,09,22,09,10,2.60
2013,09,22,09,11,2.60
2013,09,22,09,12,2.60
2013,09,22,09,13,2.60
2013,09,22,09,14,2.60
2013,09,22,09,15,2.60
2013,09,22,09,19,2.60
2013,09,22,09,20,2.60
2013,09,22,09,21,2.60
2013,09,22,09,22,2.60
2013,09,22,09,23,2.60
2013,09,22,09,24,2.60
2013,09,22,09,25,2.60
2013,09,22,09,26,2.60
2013,09,22,09,27,2.60
2013,09,22,09,28,2.60
2013,09,22,09,29,2.60
2013,09,22,09,30,2.60
2013,09,22,09,34,2.60
2013,09,22,09,35,2.60
2013,09,22,09,36,2.60
2013,09,22,09,37,2.60
2013,09,22,09,38,2.60
2013,09,22,09,39,2.60
2013,09,22,09,40,2.60
2013,09,22,09,41,2.60
2013,09,22,09,42,2.60
2013,09,22,09,43,2.60
2013,09,22,09,44,2.60
2013,09,22,09,45,2.60
2013,09,22,09,49,2.60
2013,09,22,09,50,2.60
2013,09,22,09,51,2.60
2013,09,22,09,52,2.60
2013,09,22,09,53,2.60
2013,09,22,09,54,2.60
2013,09,22,09,55,2.60
2013,09,22,09,56,2.60
2013,09,22,09,57,2.60
2013,09,22,09,58,2.60
2013,09,22,09,59,2.60
2013,09,22,10,00,2.60
2013,09,22,10,04,2.40
2013,09,22,10,05,2.40
2013,09,22,10,06,2.40
2013,09,22,10,07,2.40
2013,09,22,10,08,2.40
2013,09,22,10,09,2.40
2013,09,22,10,10,2.40
2013,09,22,10,11,2.40
2013,09,22,10,12,2.40
2013,09,22,10,13,2.40
2013,09,22,10,14,2.40
2013,09,22,10,15,2.40
2013,09,22,10,19,2.40
2013,09,22,10,20,2.40
2013,09,22,10,21,2.40
2013,09,22,10,22,2.40
2013,09,22,10,23,2.40
2013,09,22,10,24,2.40
2013,09,22,10,25,2.40
2013,09,22,10,26,2.40
2013,09,22,10,27,2.40
2013,09,22,10,28,2.40
2013,09,22,10,29,2.40
2013,09,22,10,30,2.40
2013,09,22,10,34,2.50
2013,09,22,10,35,2.50
2013,09,22,10,36,2.50
2013,09,22,10,37,2.50
2013,09,22,10,38,2.50
2013,09,22,10,39,2.50
2013,09,22,10,40,2.50
2013,09,22,10,41,2.50
2013,09,22,10,42,2.50
2013,09,22,10,43,2.50
2013,09,22,10,44,2.50
2013,09,22,10,45,2.50
2013,09,22,10,49,2.40
2013,09,22,10,50,2.40
2013,09,22,10,51,2.40
2013,09,22,10,52,2.40
2013,09,22,10,53,2.40
2013,09,22,10,54,2.40
2013,09,22,10,55,2.40
2013,09,22,10,56,2.40
2013,09,22,10,57,2.40
2013,09,22,10,58,2.40
2013,09,22,10,59,2.40
2013,09,22,11,00,2.40
2013,09,22,11,04,2.40
2013,09,22,11,05,2.40
2013,09,22,11,06,2.40
2013,09,22,11,07,2.40
2013,09,22,11,08,2.40
2013,09,22,11,09,2.40
2013,09,22,11,10,2.40
2013,09,22,11,11,2.40
2013,09,22,11,12,2.40
2013,09,22,11,13,2.40
2013,09,22,11,14,2.40
2013,09,22,11,15,2.40
2013,09,22,11,19,4.20
2013,09,22,11,20,4.20
2013,09,22,11,21,4.20
2013,09,22,11,22,4.20
2013,09,22,11,23,4.20
2013,09,22,11,24,4.20
2013,09,22,11,25,4.20
2013,09,22,11,26,4.20
2013,09,22,11,27,4.20
2013,09,22,11,28,4.20
2013,09,22,11,29,4.20
2013,09,22,11,30,4.20
2013,09,22,11,34,4.60
2013,09,22,11,35,4.60
2013,09,22,11,36,4.60
2013,09,22,11,37,4.60
2013,09,22,11,38,4.60
2013,09,22,11,39,4.60
2013,09,22,11,40,4.60
2013,09,22,11,41,4.60
2013,09,22,11,42,4.60
2013,09,22,11,43,4.60
2013,09,22,11,44,4.60
2013,09,22,11,45,4.60
2013,09,22,11,49,4.90
2013,09,22,11,50,4.90
2013,09,22,11,51,4.90
2013,09,22,11,52,4.90
2013,09,22,11,53,4.90
2013,09,22,11,54,4.90
2013,09,22,11,55,4.90
2013,09,22,11,56,4.90
2013,09,22,11,57,4.90
2013,09,22,11,58,4.90
2013,09,22,11,59,4.90
2013,09,22,12,00,4.90
2013,09,22,12,04,4.90
2013,09,22,12,05,4.90
2013,09,22,12,06,4.90
2013,09,22,12,07,4.90
2013,09,22,12,08,4.90
2013,09,22,12,09,4.90
2013,09,22,12,10,4.90
2013,09,22,12,11,4.90
2013,09,22,12,12,4.90
2013,09,22,12,13,4.90
2013,09,22,12,14,4.90
2013,09,22,12,15,4.90
2013,09,22,12,19,4.90
2013,09,22,12,20,4.90
2013,09,22,12,21,4.90
2013,09,22,12,22,4.90
2013,09,22,12,23,4.90
2013,09,22,12,24,4.90
2013,09,22,12,25,4.90
2013,09,22,12,26,4.90
2013,09,22,12,27,4.90
2013,09,22,12,28,4.90
2013,09,22,12,29,4.90
2013,09,22,12,30,4.90
2013,09,22,12,34,4.60
2013,09,22,12,35,4.60
2013,09,22,12,36,4.60
2013,09,22,12,37,4.60
2013,09,22,12,38,4.60
2013,09,22,12,39,4.60
2013,09,22,12,40,4.60
2013,09,22,12,41,4.60
2013,09,22,12,42,4.60
2013,09,22,12,43,4.60
2013,09,22,12,44,4.60
2013,09,22,12,45,4.60
2013,09,22,12,49,5.10
2013,09,22,12,50,5.10
2013,09,22,12,51,5.10
2013,09,22,12,52,5.10
2013,09,22,12,53,5.10
2013,09,22,12,54,5.10
2013,09,22,12,55,5.10
2013,09,22,12,56,5.10
2013,09,22,12,57,5.10
2013,09,22,12,58,5.10
2013,09,22,12,59,5.10
2013,09,22,13,00,5.10
2013,09,22,13,04,4.70
2013,09,22,13,05,4.70
2013,09,22,13,06,4.70
2013,09,22,13,07,4.70
2013,09,22,13,08,4.70
2013,09,22,13,09,4.70
2013,09,22,13,10,4.70
2013,09,22,13,11,4.70
2013,09,22,13,12,4.70
2013,09,22,13,13,4.70
2013,09,22,13,14,4.70
2013,09,22,13,15,4.70
2013,09,22,13,19,4.70
2013,09,22,13,20,4.70
2013,09,22,13,21,4.70
2013,09,22,13,22,4.70
2013,09,22,13,23,4.70
2013,09,22,13,24,4.70
2013,09,22,13,25,4.70
2013,09,22,13,26,4.70
2013,09,22,13,27,4.70
2013,09,22,13,28,4.70
2013,09,22,13,29,4.70
2013,09,22,13,30,4.70
2013,09,22,13,34,4.40
2013,09,22,13,35,4.40
2013,09,22,13,36,4.40
2013,09,22,13,37,4.40
2013,09,22,13,38,4.40
2013,09,22,13,39,4.40
2013,09,22,13,40,4.40
2013,09,22,13,41,4.40
2013,09,22,13,42,4.40
2013,09,22,13,43,4.40
2013,09,22,13,44,4.40
2013,09,22,13,45,4.40
2013,09,22,13,49,4.20
2013,09,22,13,50,4.20
2013,09,22,13,51,4.20
2013,09,22,13,52,4.20
2013,09,22,13,53,4.20
2013,09,22,13,54,4.20
2013,09,22,13,55,4.20
2013,09,22,13,56,4.20
2013,09,22,13,57,4.20
2013,09,22,13,58,4.20
2013,09,22,13,59,4.20
2013,09,22,14,00,4.20
2013,09,22,14,04,4.00
2013,09,22,14,05,4.00
2013,09,22,14,06,4.00
2013,09,22,14,07,4.00
2013,09,22,14,08,4.00
2013,09,22,14,09,4.00
2013,09,22,14,10,4.00
2013,09,22,14,11,4.00
2013,09,22,14,12,4.00
2013,09,22,14,13,4.00
2013,09,22,14,14,4.00
2013,09,22,14,15,4.00
2013,09,22,14,19,4.50
2013,09,22,14,20,4.50
2013,09,22,14,21,4.50
2013,09,22,14,22,4.50
2013,09,22,14,23,4.50
2013,09,22,14,24,4.50
2013,09,22,14,25,4.50
2013,09,22,14,26,4.50
2013,09,22,14,27,4.50
2013,09,22,14,28,4.50
2013,09,22,14,29,4.50
2013,09,22,14,30,4.50
2013,09,22,14,34,5.20
2013,09,22,14,35,5.20
2013,09,22,14,36,5.20
2013,09,22,14,37,5.20
2013,09,22,14,38,5.20
2013,09,22,14,39,5.20
2013,09,22,14,40,5.20
2013,09,22,14,41,5.20
2013,09,22,14,42,5.20
2013,09,22,14,43,5.20
2013,09,22,14,44,5.20
2013,09,22,14,45,5.20
2013,09,22,14,49,5.00
2013,09,22,14,50,5.00
2013,09,22,14,51,5.00
2013,09,22,14,52,5.00
2013,09,22,14,53,5.00
2013,09,22,14,54,5.00
2013,09,22,14,55,5.00
2013,09,22,14,56,5.00
2013,09,22,14,57,5.00
2013,09,22,14,58,5.00
2013,09,22,14,59,5.00
2013,09,22,15,00,5.00
2013,09,22,15,04,6.00
2013,09,22,15,05,6.00
2013,09,22,15,06,6.00
2013,09,22,15,07,6.00
2013,09,22,15,08,6.00
2013,09,22,15,09,6.00
2013,09,22,15,10,6.00
2013,09,22,15,11,6.00
2013,09,22,15,12,6.00
2013,09,22,15,13,6.00
2013,09,22,15,14,6.00
2013,09,22,15,15,6.00
2013,09,22,15,19,5.90
2013,09,22,15,20,5.90
2013,09,22,15,21,5.90
2013,09,22,15,22,5.90
2013,09,22,15,23,5.90
2013,09,22,15,24,5.90
2013,09,22,15,25,5.90
2013,09,22,15,26,5.90
2013,09,22,15,27,5.90
2013,09,22,15,28,5.90
2013,09,22,15,29,5.90
2013,09,22,15,30,5.90
2013,09,22,15,34,4.70
2013,09,22,15,35,4.70
2013,09,22,15,36,4.70
2013,09,22,15,37,4.70
2013,09,22,15,38,4.70
2013,09,22,15,39,4.70
2013,09,22,15,40,4.70
2013,09,22,15,41,4.70
2013,09,22,15,42,4.70
2013,09,22,15,43,4.70
2013,09,22,15,44,4.70
2013,09,22,15,45,4.70
2013,09,22,15,49,5.80
2013,09,22,15,50,5.80
2013,09,22,15,51,5.80
2013,09,22,15,52,5.80
2013,09,22,15,53,5.80
2013,09,22,15,54,5.80
2013,09,22,15,55,5.80
2013,09,22,15,56,5.80
2013,09,22,15,57,5.80
2013,09,22,15,58,5.80
2013,09,22,15,59,5.80
2013,09,22,16,00,5.80
2013,09,22,16,04,5.10
2013,09,22,16,05,5.10
2013,09,22,16,06,5.10
2013,09,22,16,07,5.10
2013,09,22,16,08,5.10
2013,09,22,16,09,5.10
2013,09,22,16,10,5.10
2013,09,22,16,11,5.10
2013,09,22,16,12,5.10
2013,09,22,16,13,5.10
2013,09,22,16,14,5.10
2013,09,22,16,15,5.10
2013,09,22,16,19,4.20
2013,09,22,16,20,4.20
2013,09,22,16,21,4.20
2013,09,22,16,22,4.20
2013,09,22,16,23,4.20
2013,09,22,16,24,4.20
2013,09,22,16,25,4.20
2013,09,22,16,26,4.20
2013,09,22,16,27,4.20
2013,09,22,16,28,4.20
2013,09,22,16,29,4.20
2013,09,22,16,30,4.20
2013,09,22,16,34,4.50
2013,09,22,16,35,4.50
2013,09,22,16,36,4.50
2013,09,22,16,37,4.50
2013,09,22,16,38,4.50
2013,09,22,16,39,4.50
2013,09,22,16,40,4.50
2013,09,22,16,41,4.50
2013,09,22,16,42,4.50
2013,09,22,16,43,4.50
2013,09,22,16,44,4.50
2013,09,22,16,45,4.50
2013,09,22,16,49,4.70
2013,09,22,16,50,4.70
2013,09,22,16,51,4.70
2013,09,22,16,52,4.70
2013,09,22,16,53,4.70
2013,09,22,16,54,4.70
2013,09,22,16,55,4.70
2013,09,22,16,56,4.70
2013,09,22,16,57,4.70
2013,09,22,16,58,4.70
2013,09,22,16,59,4.70
2013,09,22,17,00,4.70
2013,09,22,17,04,4.60
2013,09,22,17,05,4.60
2013,09,22,17,06,4.60
2013,09,22,17,07,4.60
2013,09,22,17,08,4.60
2013,09,22,17,09,4.60
2013,09,22,17,10,4.60
2013,09,22,17,11,4.60
2013,09,22,17,12,4.60
2013,09,22,17,13,4.60
2013,09,22,17,14,4.60
2013,09,22,17,15,4.60
2013,09,22,17,19,4.20
2013,09,22,17,20,4.20
2013,09,22,17,21,4.20
2013,09,22,17,22,4.20
2013,09,22,17,23,4.20
2013,09,22,17,24,4.20
2013,09,22,17,25,4.20
2013,09,22,17,26,4.20
2013,09,22,17,27,4.20
2013,09,22,17,28,4.20
2013,09,22,17,29,4.20
2013,09,22,17,30,4.20
2013,09,22,17,34,4.40
2013,09,22,17,35,4.40
2013,09,22,17,36,4.40
2013,09,22,17,37,4.40
2013,09,22,17,38,4.40
2013,09,22,17,39,4.40
2013,09,22,17,40,4.40
2013,09,22,17,41,4.40
2013,09,22,17,42,4.40
2013,09,22,17,43,4.40
2013,09,22,17,44,4.40
2013,09,22,17,45,4.40
2013,09,22,17,49,4.00
2013,09,22,17,50,4.00
2013,09,22,17,51,4.00
2013,09,22,17,52,4.00
2013,09,22,17,53,4.00
2013,09,22,17,54,4.00
2013,09,22,17,55,4.00
2013,09,22,17,56,4.00
2013,09,22,17,57,4.00
2013,09,22,17,58,4.00
2013,09,22,17,59,4.00
2013,09,22,18,00,4.00
2013,09,22,18,04,3.70
2013,09,22,18,05,3.70
2013,09,22,18,06,3.70
2013,09,22,18,07,3.70
2013,09,22,18,08,3.70
2013,09,22,18,09,3.70
2013,09,22,18,10,3.70
2013,09,22,18,11,3.70
2013,09,22,18,12,3.70
2013,09,22,18,13,3.70
2013,09,22,18,14,3.70
2013,09,22,18,15,3.70
2013,09,22,18,19,3.60
2013,09,22,18,20,3.60
2013,09,22,18,21,3.60
2013,09,22,18,22,3.60
2013,09,22,18,23,3.60
2013,09,22,18,24,3.60
2013,09,22,18,25,3.60
2013,09,22,18,26,3.60
2013,09,22,18,27,3.60
2013,09,22,18,28,3.60
2013,09,22,18,29,3.60
2013,09,22,18,30,3.60
2013,09,22,18,34,3.50
2013,09,22,18,35,3.50
2013,09,22,18,36,3.50
2013,09,22,18,37,3.50
2013,09,22,18,38,3.50
2013,09,22,18,39,3.50
2013,09,22,18,40,3.50
2013,09,22,18,41,3.50
2013,09,22,18,42,3.50
2013,09,22,18,43,3.50
2013,09,22,18,44,3.50
2013,09,22,18,45,3.50
2013,09,22,18,49,3.40
2013,09,22,18,50,3.40
2013,09,22,18,51,3.40
2013,09,22,18,52,3.40
2013,09,22,18,53,3.40
2013,09,22,18,54,3.40
2013,09,22,18,55,3.40
2013,09,22,18,56,3.40
2013,09,22,18,57,3.40
2013,09,22,18,58,3.40
2013,09,22,18,59,3.40
2013,09,22,19,00,3.40
2013,09,22,19,04,3.40
2013,09,22,19,05,3.40
2013,09,22,19,06,3.40
2013,09,22,19,07,3.40
2013,09,22,19,08,3.40
2013,09,22,19,09,3.40
2013,09,22,19,10,3.40
2013,09,22,19,11,3.40
2013,09,22,19,12,3.40
2013,09,22,19,13,3.40
2013,09,22,19,14,3.40
2013,09,22,19,15,3.40
2013,09,22,19,19,3.20
2013,09,22,19,20,3.20
2013,09,22,19,21,3.20
2013,09,22,19,22,3.20
2013,09,22,19,23,3.20
2013,09,22,19,24,3.20
2013,09,22,19,25,3.20
2013,09,22,19,26,3.20
2013,09,22,19,27,3.20
2013,09,22,19,28,3.20
2013,09,22,19,29,3.20
2013,09,22,19,30,3.20
2013,09,22,19,34,3.10
2013,09,22,19,35,3.10
2013,09,22,19,36,3.10
2013,09,22,19,37,3.10
2013,09,22,19,38,3.10
2013,09,22,19,39,3.10
2013,09,22,19,40,3.10
2013,09,22,19,41,3.10
2013,09,22,19,42,3.10
2013,09,22,19,43,3.10
2013,09,22,19,44,3.10
2013,09,22,19,45,3.10
2013,09,22,19,49,3.10
2013,09,22,19,50,3.10
2013,09,22,19,51,3.10
2013,09,22,19,52,3.10
2013,09,22,19,53,3.10
2013,09,22,19,54,3.10
2013,09,22,19,55,3.10
2013,09,22,19,56,3.10
2013,09,22,19,57,3.10
2013,09,22,19,58,3.10
2013,09,22,19,59,3.10
2013,09,22,20,00,3.10
2013,09,22,20,04,3.20
2013,09,22,20,05,3.20
2013,09,22,20,06,3.20
2013,09,22,20,07,3.20
2013,09,22,20,08,3.20
2013,09,22,20,09,3.20
2013,09,22,20,10,3.20
2013,09,22,20,11,3.20
2013,09,22,20,12,3.20
2013,09,22,20,13,3.20
2013,09,22,20,14,3.20
2013,09,22,20,15,3.20
2013,09,22,20,19,3.10
2013,09,22,20,20,3.10
2013,09,22,20,21,3.10
2013,09,22,20,22,3.10
2013,09,22,20,23,3.10
2013,09,22,20,24,3.10
2013,09,22,20,25,3.10
2013,09,22,20,26,3.10
2013,09,22,20,27,3.10
2013,09,22,20,28,3.10
2013,09,22,20,29,3.10
2013,09,22,20,30,3.10
2013,09,22,20,34,3.10
2013,09,22,20,35,3.10
2013,09,22,20,36,3.10
2013,09,22,20,37,3.10
2013,09,22,20,38,3.10
2013,09,22,20,39,3.10
2013,09,22,20,40,3.10
2013,09,22,20,41,3.10
2013,09,22,20,42,3.10
2013,09,22,20,43,3.10
2013,09,22,20,44,3.10
2013,09,22,20,45,3.10
2013,09,22,20,49,2.90
2013,09,22,20,50,2.90
2013,09,22,20,51,2.90
2013,09,22,20,52,2.90
2013,09,22,20,53,2.90
2013,09,22,20,54,2.90
2013,09,22,20,55,2.90
2013,09,22,20,56,2.90
2013,09,22,20,57,2.90
2013,09,22,20,58,2.90
2013,09,22,20,59,2.90
2013,09,22,21,00,2.90
2013,09,22,21,04,2.70
2013,09,22,21,05,2.70
2013,09,22,21,06,2.70
2013,09,22,21,07,2.70
2013,09,22,21,08,2.70
2013,09,22,21,09,2.70
2013,09,22,21,10,2.70
2013,09,22,21,11,2.70
2013,09,22,21,12,2.70
2013,09,22,21,13,2.70
2013,09,22,21,14,2.70
2013,09,22,21,15,2.70
2013,09,22,21,19,2.60
2013,09,22,21,20,2.60
2013,09,22,21,21,2.60
2013,09,22,21,22,2.60
2013,09,22,21,23,2.60
2013,09,22,21,24,2.60
2013,09,22,21,25,2.60
2013,09,22,21,26,2.60
2013,09,22,21,27,2.60
2013,09,22,21,28,2.60
2013,09,22,21,29,2.60
2013,09,22,21,30,2.60
2013,09,22,21,34,2.50
2013,09,22,21,35,2.50
2013,09,22,21,36,2.50
2013,09,22,21,37,2.50
2013,09,22,21,38,2.50
2013,09,22,21,39,2.50
2013,09,22,21,40,2.50
2013,09,22,21,41,2.50
2013,09,22,21,42,2.50
2013,09,22,21,43,2.50
2013,09,22,21,44,2.50
2013,09,22,21,45,2.50
2013,09,22,21,49,2.40
2013,09,22,21,50,2.40
2013,09,22,21,51,2.40
2013,09,22,21,52,2.40
2013,09,22,21,53,2.40
2013,09,22,21,54,2.40
2013,09,22,21,55,2.40
2013,09,22,21,56,2.40
2013,09,22,21,57,2.40
2013,09,22,21,58,2.40
2013,09,22,21,59,2.40
2013,09,22,22,00,2.40
2013,09,22,22,04,2.40
2013,09,22,22,05,2.40
2013,09,22,22,06,2.40
2013,09,22,22,07,2.40
2013,09,22,22,08,2.40
2013,09,22,22,09,2.40
2013,09,22,22,10,2.40
2013,09,22,22,11,2.40
2013,09,22,22,12,2.40
2013,09,22,22,13,2.40
2013,09,22,22,14,2.40
2013,09,22,22,15,2.40
2013,09,22,22,19,2.40
2013,09,22,22,20,2.40
2013,09,22,22,21,2.40
2013,09,22,22,22,2.40
2013,09,22,22,23,2.40
2013,09,22,22,24,2.40
2013,09,22,22,25,2.40
2013,09,22,22,26,2.40
2013,09,22,22,27,2.40
2013,09,22,22,28,2.40
2013,09,22,22,29,2.40
2013,09,22,22,30,2.40
2013,09,22,22,34,2.60
2013,09,22,22,35,2.60
2013,09,22,22,36,2.60
2013,09,22,22,37,2.60
2013,09,22,22,38,2.60
2013,09,22,22,39,2.60